Regional Weather Roundup
Issued by NWS Newport/Morehead, NC

Current Version | Previous Version | Text Only | Print | Product List | Glossary On
Versions: 1 2 3 4 5 6 7 8 9 10 11 12 13 14 15 16 17 18 19 20 21 22 23 24 25 26 27 28 29 30 31 32 33 34 35 36 37 38 39 40 41 42 43 44 45 46 47 48 49 50
000 ASUS42 KMHX 130913 RWRMHX WEATHER ROUNDUP FOR EASTERN NORTH CAROLINA NATIONAL WEATHER SERVICE NEWPORT/MOREHEAD CITY NC 400 AM EST SAT FEB 13 2016 NOTE: "FAIR" INDICATES FEW OR NO CLOUDS BELOW 12,000 FEET WITH NO SIGNIFICANT WEATHER AND/OR OBSTRUCTIONS TO VISIBILITY NCZ015>017-031-032-045>047-102-103-131000- NORTH COAST CITY SKY/WX TMP DP RH WIND PRES REMARKS EDENTON MOCLDY 31 26 81 NW6 30.05R ELIZABETH CITY CLEAR 21 20 96 NW5 30.04R KITTY HAWK SUNNY 28 24 86 NW6 30.01S MANTEO CLEAR 30 26 86 N6 30.04R $$ NCZ045>047-081-094-103-104-131000- CENTRAL COAST CITY SKY/WX TMP DP RH WIND PRES REMARKS FRISCO CLOUDY 34 27 75 NW10G18 30.02R SWANQUARTER N/A 30 N/A N/A NW2 30.00S $$ NCZ095-097-098-100-101-131000- SOUTHERN COAST CITY SKY/WX TMP DP RH WIND PRES REMARKS BEAUFORT PTCLDY 33 28 81 NW12 30.06R CEDAR ISLAND N/A 36 N/A N/A NW21G28 30.09R JACKSONVILLE CLEAR 30 28 92 NW6 30.07R FOG PINEY ISLAND PTSUNNY N/A N/A N/A NW9 30.05R WILMINGTON CLEAR 30 28 92 NW5 30.08R FOG $$ NCZ011>013-027>030-043-044-078>080-089-090>093-098-131000- COASTAL PLAIN CITY SKY/WX TMP DP RH WIND PRES REMARKS AHOSKIE NOT AVBL CLINTON CLEAR 29 29 100 CALM 30.08S FOG ELIZABETHTOWN CLEAR 27 27 100 CALM 30.08R FOG GOLDSBORO CLEAR 27 27 100 SW3 30.05R GREENVILLE CLEAR 28 27 93 CALM 30.07R HAVELOCK PTCLDY 32 28 85 NW9 30.07R FOG KENANSVILLE CLEAR 29 29 99 CALM 30.08R FOG KINSTON CLEAR 27 26 97 SW3 30.07S FOG NEW BERN CLEAR 30 27 88 CALM 30.07R RICHLANDS CLEAR 30 25 80 CALM 30.07S ROCKY MOUNT CLEAR 26 22 84 CALM 30.06R WASHINGTON CLEAR 26 24 94 CALM 30.06R WHITEVILLE CLEAR 29 27 94 CALM 30.08R FOG $$ AMZ130-135-150-152-154-156-158-170-250-252-270-ANZ085-086-088-633-658-670-131000- MARINE OBSERVATIONS STATION/POSITION TIME TEMP WIND PRES WAVE SWELL AIR SEA DIR/SP/G HT/PER HT/PER (UTC) (F) (DEG/KT/KT) (MB) (FT/S) (FT/S) CHESAPEAKE LIGHT 0900 31 340/ 18/ 22 1017.1 64 E VA BEACH 0850 35 48 330/ 21/ 27 1015.1 6/ 5 DUCK 0800 29 330/ 13/ 14 1015.2 2 E DUCK 0811 42 N/A 2/ 7 OREGON INLET 0800 31 40 280/ 7/ 8 1016.1 13E OREGON INLT 0900 44 N/A 4/ 4 HATTERAS CG 0800 35 45 310/ 13/ 19 1015.8 DIAMOND BUOY 0850 40 71 340/ 21/ 25 1016.0 5/ 8 3/ 8 CAPE LOOKOUT NOT AVBL BEAUFORT LAB 0800 35 43 330/ 8/ 13 1015.6 30 SE NEW RVR IN 0808 43 62 1016.3 30 SE NEW RVR IN 0825 62 N/A 4/ 8 27 SE WRIGHTSVLE 0808 39 59 360/ 17/ 23 1016.4 5 SE WRIGHTSVLE 0808 38 50 320/ 14/ 19 1017.9 225 S CAPE HAT 0850 60 68 320/ 16/ 21 N/A 13/10 10/10 41 SE CHARLESTON 0850 54 67 310/ 21/ 25 1017.6 4/ 6 2/ 6 $$

USA.gov is the U.S. government's official web portal to all federal, state and local government web resources and services.